This is the latest recevied weather packets stored in our database for station/object KE6JJJ-1. If no packets are shown the sender has not sent any weather packets the latest 10 day(s).
| Time | Temp. | Humidity | Pressure | Rain* | Wind** | Luminosity | Snow |
|---|---|---|---|---|---|---|---|
| 1787924103 | 14.44° C | 90% | 1013.4 hPa | 0 mm | - | 0 W/m² | - |
| 1787922304 | 14.44° C | 90% | 1013.1 hPa | 0 mm | - | 0 W/m² | - |
| 1787920503 | 14.44° C | 90% | 1012.9 hPa | 0 mm | - | 0 W/m² | - |
| 1787918703 | 14.44° C | 89% | 1013.1 hPa | 0 mm | - | 0 W/m² | - |
| 1787916903 | 15° C | 89% | 1013.1 hPa | 0 mm | - | 0 W/m² | - |
| 1787913306 | 15° C | 88% | 1013 hPa | 0 mm | - | 0 W/m² | - |
| 1787911504 | 15° C | 88% | 1013 hPa | 0 mm | - | 0 W/m² | - |
| 1787909703 | 15° C | 88% | 1013.2 hPa | 0 mm | - | 0 W/m² | - |
| 1787907903 | 15° C | 87% | 1013.4 hPa | 0 mm | - | 0 W/m² | - |
| 1787906103 | 15.56° C | 87% | 1013.6 hPa | 0 mm | - | 0 W/m² | - |
| 1787904303 | 15.56° C | 87% | 1013.8 hPa | 0 mm | - | 0 W/m² | - |
| 1787902503 | 15.56° C | 87% | 1013.7 hPa | 0 mm | - | 0 W/m² | - |
| 1787900703 | 15.56° C | 87% | 1013.3 hPa | 0 mm | - | 0 W/m² | - |
| 1787898903 | 15.56° C | 86% | 1013.7 hPa | 0 mm | - | 0 W/m² | - |
| 1787897103 | 15.56° C | 86% | 1013.5 hPa | 0 mm | - | 0 W/m² | - |
| 1787895303 | 16.11° C | 86% | 1013.9 hPa | 0 mm | - | 0 W/m² | - |
| 1787893503 | 16.67° C | 85% | 1014.2 hPa | 0 mm | - | 0 W/m² | - |
| 1787891703 | 16.67° C | 84% | 1014.1 hPa | 0 mm | - | 0 W/m² | - |
| 1787889903 | 17.22° C | 83% | 1014.1 hPa | 0 mm | - | 0 W/m² | - |
| 1787888103 | 17.22° C | 81% | 1014 hPa | 0 mm | - | 0 W/m² | - |
| 1787886303 | 17.78° C | 81% | 1013.4 hPa | 0 mm | - | 0 W/m² | - |
| 1787884503 | 17.22° C | 82% | 1013.5 hPa | 0 mm | - | 12 W/m² | - |
| 1787882703 | 17.78° C | 81% | 1013.8 hPa | 0 mm | - | 42 W/m² | - |
| 1787880903 | 17.78° C | 80% | 1013.9 hPa | 0 mm | - | 79 W/m² | - |
| 1787879103 | 18.33° C | 79% | 1014.5 hPa | 0 mm | - | 162 W/m² | - |
* Rain latest hour (hover to see other rain measurements)
** Current wind speed in m/s (hover to see current wind gust speed)